« Back
NWS Peachtree City, Ga » Text Product » GA Regional Weather Roundup


Printer-friendly Version
Current Version              Previous Versions:   1  2  3  4  5  6  7  8  9  

Regional Weather Roundup

022
ASUS42 KFFC 312103
RWRGA
WEATHER ROUNDUP FOR GEORGIA
NATIONAL WEATHER SERVICE PEACHTREE CITY GA
500 PM EDT THU JUL 31 2014

NOTE: "FAIR" INDICATES FEW OR NO CLOUDS BELOW 12,000 FEET WITH NO
SIGNIFICANT WEATHER AND/OR OBSTRUCTIONS TO VISIBILITY.

* = USE WITH CAUTION. THE STATIONS MARKED WITH AN ASTERISK MAY NOT
REPORT WEATHER SUCH AS PRECIPITATION, FOG, OR THUNDER AND ARE NOT
QUALITY CONTROLLED BY NWS.

THE REMARK "TC" DENOTES TEMPERATURE READING IN DEGREES CELSIUS.

GAZ001>058-312200-
NORTH GEORGIA

CITY           SKY/WX    TMP DP  RH WIND       PRES   REMARKS
ATLANTA        PTSUNNY   83  66  56 N14       30.03F
ATHENS         CLOUDY    77  66  68 NE13      30.07S
CHAMBLEE       PTSUNNY   79  67  66 N12G18    30.04F
PEACHTREE CITY PTSUNNY   85  65  51 NW6       30.02F
ROME           CLOUDY    82  66  58 N9        30.05F
WEST ATLANTA   PTSUNNY   85  67  54 N7        30.03F
GAINESVILLE    CLOUDY    75  65  70 E9        30.11F
CARTERSVILLE   CLOUDY    83  65  54 N9        30.05F


CITY           SKY/WX    TMP DP  RH WIND       PRES   REMARKS
DALTON*        CLOUDY    77  64  65 CALM      30.07F
LAWRENCEVILLE* PTSUNNY   75  63  64 NE8G18    30.07S
MARIETTA       CLOUDY    81  69  67 VRB5      30.05F
KENNESAW*      PTSUNNY   81  66  61 CALM      30.07F
$$

GAZ059>098-102>109-312200-
CENTRAL GEORGIA

CITY           SKY/WX    TMP DP  RH WIND       PRES   REMARKS
AUGUSTA-BUSH   PTSUNNY   78  71  79 N7        30.03R
AUGUSTA-DANIEL CLOUDY    75  69  81 NE8       30.05R
COLUMBUS       PTSUNNY   86  62  44 NE3       29.99F
MACON          PTSUNNY   85  68  56 N6        29.99S
ROBINS AFB     PTSUNNY   87  71  59 N5        29.98S HX  93


CITY           SKY/WX    TMP DP  RH WIND       PRES   REMARKS
LAGRANGE*      MOSUNNY   87  69  53 N3        30.01F HX  91
SYLVANIA*      PTSUNNY   78  76  91 E3        30.02R
MILLEDGEVILLE* PTSUNNY   81  63  54 E9        30.01R
$$

GAZ099>101-110>166-312200-
SOUTH GEORGIA

CITY           SKY/WX    TMP DP  RH WIND       PRES   REMARKS
SAVANNAH       LGT RAIN  79  75  87 NE10      29.98F
VALDOSTA       MOSUNNY   95  59  30 CALM      29.96F HX  94
ALMA           MOSUNNY   93  56  28 S9        29.95S HX  91
ST SIMONS      PTSUNNY   89  68  49 SE14      29.97S HX  93
FT STEWART     PTSUNNY   87  74  63 N7        29.95F HX  95
ALBANY         CLOUDY    91  60  35 NW9       29.99S HX  90
HUNTER AFB     PTSUNNY   83  74  73 VRB6      29.96S HX  90
MOODY AFB      SUNNY     91  59  33 VRB5      29.96F HX  90
BRUNSWICK      PTSUNNY   91  64  40 SE10      29.97F HX  93


CITY           SKY/WX    TMP DP  RH WIND       PRES   REMARKS
BAINBRIDGE*    SUNNY     95  64  36 W3        29.97F HX  97
MOULTRIE*      PTSUNNY   90  59  35 SW5       29.98S
VIDALIA*         N/A     84  73  70 N10G16    29.98F HX  91
WAYCROSS*      MOSUNNY   96  64  33 W8        29.95F HX  98
DOUGLAS*       MOSUNNY   95  55  26 SW3       29.97F HX  93
$$



USA.gov is the U.S. government's official web portal to all federal, state and local government web resources and services.